Mount Carmel, IL

11:59 PM CST on December 11, 2019 (GMT -0600)
Mount Carmel Municipal

Weather History for KAJG - October, 2019

Change the Weather History Date:

Wednesday, October 16, 2019

  Actual Average (WUND) Record (WUND)
Temperature  
Mean Temperature 49 °F -  
Max Temperature 56 °F - - (-1)
Min Temperature 37 °F - - (-1)
Degree Days  
Heating Degree Days 16    
Moisture  
Dew Point 37 °F    
Average Humidity 64    
Maximum Humidity 87    
Minimum Humidity 51    
Precipitation  
Precipitation 0.00 in - - ()
Sea Level Pressure  
Sea Level Pressure 30.00 in    
Wind  
Wind Speed 14 mph (NW)    
Max Wind Speed 22 mph    
Max Gust Speed 26 mph    
Visibility 10 miles    
Events      
Averages and records for this station are not official NWS values.
T = Trace of Precipitation, MM = Missing Value Source: NWS Daily Summary

Daily Weather History Graph

Daily Weather History Graph

Search for Another Location

Airport or City:

Astronomy

Oct. 16, 2019 Rise Set
Actual Time 7:00 AM CDT 6:11 PM CDT
Civil Twilight 6:34 AM CDT 6:38 PM CDT
Nautical Twilight 6:03 AM CDT 7:09 PM CDT
Astronomical Twilight 5:32 AM CDT 7:39 PM CDT
Moon 8:06 PM CDT (10/16) 9:29 AM CDT (10/16)
Length of Visible Light 12h 04m
Length of Day
11h 10m
Waning Gibbous, 92% of the Moon is Illuminated
Oct 16
Waning Gibbous
Oct 21
Last Quarter
Oct 27
New
Nov 4
First Quarter
Nov 12
Full

Hourly Weather History & Observations

Time (CDT) Temp. Windchill Dew Point Humidity Pressure Visibility Wind Dir Wind Speed Gust Speed Precip Events Conditions
12:15 AM 58.1 °F - 40.1 °F 51% 29.87 in 10.0 mi NNW 21.9 mph - N/A   Overcast
12:35 AM 57.0 °F - 39.9 °F 53% 29.87 in 10.0 mi NNW 18.4 mph 24.2 mph N/A   Overcast
12:55 AM 56.7 °F - 40.1 °F 54% 29.88 in 10.0 mi NNW 16.1 mph 21.9 mph N/A   Overcast
1:15 AM 56.3 °F - 40.5 °F 55% 29.89 in 10.0 mi NW 12.7 mph 18.4 mph N/A   Overcast
1:35 AM 55.6 °F - 40.3 °F 56% 29.89 in 10.0 mi NW 8.1 mph 20.7 mph N/A   Overcast
1:55 AM 54.9 °F - 39.4 °F 56% 29.89 in 10.0 mi NW 17.3 mph 24.2 mph N/A   Overcast
2:15 AM 52.2 °F - 38.7 °F 60% 29.91 in 10.0 mi NW 16.1 mph 19.6 mph N/A   Scattered Clouds
2:35 AM 50.4 °F - 38.3 °F 63% 29.90 in 10.0 mi NW 9.2 mph 17.3 mph N/A   Clear
2:55 AM 49.3 °F - 38.3 °F 66% 29.91 in 10.0 mi NW 17.3 mph 23.0 mph N/A   Clear
3:15 AM 48.6 °F - 37.9 °F 67% 29.91 in 10.0 mi NW 11.5 mph 16.1 mph N/A   Clear
3:35 AM 47.8 °F - 37.8 °F 68% 29.91 in 10.0 mi NW 13.8 mph 19.6 mph N/A   Clear
3:55 AM 47.1 °F - 37.4 °F 69% 29.91 in 10.0 mi NW 11.5 mph 20.7 mph N/A   Clear
4:15 AM 46.4 °F 41.1 °F 37.4 °F 71% 29.91 in 10.0 mi NW 11.5 mph - N/A   Clear
4:35 AM 46.2 °F 40.1 °F 37.4 °F 71% 29.91 in 10.0 mi NW 13.8 mph 18.4 mph N/A   Clear
4:55 AM 45.7 °F 41.0 °F 37.4 °F 73% 29.91 in 10.0 mi NW 9.2 mph 16.1 mph N/A   Clear
5:15 AM 45.3 °F 40.6 °F 37.4 °F 74% 29.93 in 10.0 mi NW 9.2 mph 20.7 mph N/A   Clear
5:35 AM 45.0 °F 38.9 °F 37.4 °F 75% 29.93 in 10.0 mi NW 12.7 mph 20.7 mph N/A   Clear
5:55 AM 44.6 °F 38.8 °F 37.4 °F 76% 29.94 in 10.0 mi WNW 11.5 mph 18.4 mph N/A   Clear
6:15 AM 44.6 °F 38.4 °F 37.4 °F 76% 29.95 in 10.0 mi NW 12.7 mph 17.3 mph N/A   Clear
6:55 AM 44.1 °F 38.6 °F 37.4 °F 77% 29.95 in 10.0 mi NW 10.4 mph - N/A   Clear
7:15 AM 43.9 °F 38.3 °F 37.4 °F 78% 29.95 in 10.0 mi NW 10.4 mph - N/A   Clear
7:35 AM 44.1 °F 39.0 °F 37.6 °F 78% 29.96 in 10.0 mi NW 9.2 mph - N/A   Clear
7:55 AM 44.8 °F 39.0 °F 37.8 °F 76% 29.96 in 10.0 mi WNW 11.5 mph 18.4 mph N/A   Clear
8:15 AM 45.5 °F 38.9 °F 37.8 °F 74% 29.97 in 10.0 mi WNW 15.0 mph - N/A   Clear
8:35 AM 46.4 °F 41.1 °F 37.8 °F 72% 29.99 in 10.0 mi WNW 11.5 mph 17.3 mph N/A   Clear
8:55 AM 47.3 °F - 37.6 °F 69% 29.99 in 10.0 mi NW 16.1 mph 20.7 mph N/A   Clear
9:15 AM 48.0 °F - 37.6 °F 67% 30.00 in 10.0 mi NW 17.3 mph 23.0 mph N/A   Scattered Clouds
9:35 AM 49.6 °F - 37.6 °F 63% 30.00 in 10.0 mi NW 15.0 mph 18.4 mph N/A   Scattered Clouds
9:55 AM 51.1 °F - 37.8 °F 60% 30.01 in 10.0 mi NNW 16.1 mph 25.3 mph N/A   Scattered Clouds
10:15 AM 51.1 °F - 36.9 °F 58% 30.02 in 10.0 mi NW 17.3 mph 23.0 mph N/A   Mostly Cloudy
10:35 AM 50.5 °F - 36.5 °F 59% 30.01 in 10.0 mi NW 15.0 mph 23.0 mph N/A   Overcast
10:55 AM 52.2 °F - 37.0 °F 56% 30.02 in 10.0 mi NW 13.8 mph 20.7 mph N/A   Overcast
11:15 AM 51.1 °F - 36.1 °F 57% 30.02 in 10.0 mi NNW 13.8 mph 20.7 mph N/A   Overcast
11:35 AM 51.1 °F - 36.3 °F 57% 30.02 in 10.0 mi NW 12.7 mph 17.3 mph N/A   Overcast
11:55 AM 51.4 °F - 36.9 °F 58% 30.02 in 10.0 mi NNW 9.2 mph - N/A   Overcast
12:15 PM 51.3 °F - 36.7 °F 57% 30.03 in 10.0 mi NW 11.5 mph 20.7 mph N/A   Overcast
12:35 PM 51.3 °F - 36.7 °F 57% 30.03 in 10.0 mi NW 16.1 mph 20.7 mph N/A   Overcast
12:55 PM 51.3 °F - 36.3 °F 57% 30.03 in 10.0 mi NW 17.3 mph 26.5 mph N/A   Overcast
1:15 PM 52.0 °F - 36.7 °F 56% 30.03 in 10.0 mi NW 11.5 mph 19.6 mph N/A   Overcast
1:55 PM 52.5 °F - 37.4 °F 56% 30.02 in 10.0 mi NW 9.2 mph - N/A   Overcast
2:15 PM 52.3 °F - 36.3 °F 54% 30.02 in 10.0 mi NW 15.0 mph 19.6 mph N/A   Overcast
2:35 PM 52.5 °F - 36.0 °F 53% 30.03 in 10.0 mi NW 12.7 mph 23.0 mph N/A   Overcast
2:55 PM 52.2 °F - 35.8 °F 54% 30.03 in 10.0 mi NW 15.0 mph 24.2 mph N/A   Overcast
3:15 PM 52.2 °F - 36.0 °F 54% 30.04 in 10.0 mi NW 12.7 mph 20.7 mph N/A   Overcast
3:35 PM 51.8 °F - 36.0 °F 55% 30.04 in 10.0 mi NW 12.7 mph 20.7 mph N/A   Overcast
3:55 PM 52.2 °F - 36.0 °F 54% 30.04 in 10.0 mi WNW 11.5 mph 17.3 mph N/A   Overcast
4:15 PM 52.2 °F - 35.8 °F 54% 30.05 in 10.0 mi WNW 13.8 mph 18.4 mph N/A   Overcast
4:35 PM 52.3 °F - 35.8 °F 53% 30.05 in 10.0 mi WNW 10.4 mph 20.7 mph N/A   Overcast
4:55 PM 52.0 °F - 35.6 °F 54% 30.05 in 10.0 mi NW 13.8 mph 17.3 mph N/A   Overcast
5:15 PM 51.8 °F - 35.6 °F 54% 30.05 in 10.0 mi WNW 11.5 mph - N/A   Overcast
5:35 PM 51.3 °F - 35.2 °F 54% 30.05 in 10.0 mi WNW 10.4 mph 17.3 mph N/A   Overcast
5:55 PM 50.9 °F - 36.0 °F 57% 30.06 in 10.0 mi WNW 11.5 mph - N/A   Overcast
6:15 PM 50.7 °F - 36.1 °F 57% 30.06 in 10.0 mi WNW 6.9 mph - N/A   Overcast
6:35 PM 50.4 °F - 36.7 °F 59% 30.06 in 10.0 mi WNW 6.9 mph - N/A   Overcast
6:55 PM 49.8 °F - 37.0 °F 61% 30.07 in 10.0 mi North - - N/A   Overcast
7:15 PM 49.6 °F - 35.4 °F 58% 30.07 in 10.0 mi NW 9.2 mph - N/A   Overcast
7:35 PM 48.4 °F - 35.4 °F 61% 30.08 in 10.0 mi NW 5.8 mph - N/A   Overcast
7:55 PM 48.6 °F - 35.6 °F 61% 30.09 in 10.0 mi North - - N/A   Overcast
8:15 PM 48.0 °F - 36.1 °F 63% 30.09 in 10.0 mi North - - N/A   Overcast
8:35 PM 46.4 °F - 36.5 °F 68% 30.09 in 10.0 mi North - - N/A   Overcast
8:55 PM 45.7 °F - 37.2 °F 72% 30.09 in 10.0 mi North - - N/A   Overcast
9:15 PM 44.1 °F - 37.4 °F 77% 30.09 in 10.0 mi North - - N/A   Mostly Cloudy
9:35 PM 44.4 °F - 36.0 °F 72% 30.09 in 10.0 mi North - - N/A   Scattered Clouds
9:55 PM 43.0 °F - 36.5 °F 78% 30.08 in 10.0 mi North - - N/A   Mostly Cloudy
10:15 PM 42.6 °F - 36.5 °F 79% 30.08 in 10.0 mi North - - N/A   Scattered Clouds
10:35 PM 41.9 °F - 36.1 °F 80% 30.07 in 10.0 mi North - - N/A   Clear
10:55 PM 40.6 °F 36.7 °F 35.8 °F 83% 30.06 in 10.0 mi NNW 5.8 mph - N/A   Clear
11:15 PM 41.2 °F 37.3 °F 35.8 °F 81% 30.06 in 10.0 mi NNW 5.8 mph - N/A   Clear
11:35 PM 40.6 °F - 35.8 °F 83% 30.06 in 10.0 mi North - - N/A   Clear
11:55 PM 37.4 °F - 34.0 °F 87% 30.06 in 10.0 mi North - - N/A   Clear